レモン彗星

405P/Lemmon (2020)

English version
Home page
Updated on June 14, 2021

---------------------------------------------------------------------

・ プロフィール

符号 405P/2020 U1
検出日 2020年10月17日、22日、23日、25日
検出光度 18.8等、18.7等、18.1等
検出者 E. Schwab (Egelsbach, Germany), D. D. Balam and C. E. Spratt (Plaskett telescope at Victoria, BC, Canada), T. Ikemura (Nagoya, Aichi-ken, Japan) and Hirohisa Sato (Sukagawa, Fukushima-ken, Japan), R. Weryk (Pan-STARRS1, Haleakala)

・ 写真集

・ 軌道要素

Epoch 2020 Dec. 17.0 TT = JDT 2459200.5
T 2020 Dec. 24.31969 TT                                 Rudenko
q   1.1219055            (2000.0)            P               Q
n   0.14367824     Peri.  112.24843     -0.43077870     -0.90240858
a   3.6102897      Node     3.31384     +0.75646976     -0.36675696
e   0.6892478      Incl.    9.36483     +0.49212114     -0.22615944
P   6.86
From 1042 observations 2013 Oct. 4-2021 Apr. 20, mean residual 0".9.

・ 星図

・ 光度変化

        m1 = 17.5 + 5 logΔ + 8.0 log r(t - 20)

---------------------------------------------------------------------

軌道要素はM.P.E.C. 2021-J28に掲載されたものです。
星図はステラナビゲータ Ver.10 (アストロアーツ) で作成したものです。
光度グラフはComet for Windowsで作成したものです。

---------------------------------------------------------------------

Copyright(C) Seiichi Yoshida (comet@aerith.net). All rights reserved.